Location: Avebury
(53.1487°N, 106.9774°W)
Time: 11:45:17
(UTC+00:00)

X-37B - Pass Details

Date: 30 January 2022
Orbit: 329 x 342 km, 45.0° (Epoch: 18 May)

Event Time Altitude Azimuth Distance (km) Brightness Sun altitude
Rises 01:52:28 0° 227° (SW) 2,113 5.1 -18.7°
Reaches altitude 10° 01:55:11 10° 198° (SSW) 1,274 3.5 -19.1°
Enters shadow 01:56:01 13° 181° (S) 1,137 3.0 -19.3°
